$Date,$Time,DM0201B,DM0203B,DM0205B,DM0207B,DM0209B
02/01/99,00:00:01,25,351,-10,276,960
02/01/99,00:05:01,65,1,-10,285,960
02/01/99,00:10:01,29,16,-9,277,960
02/01/99,00:15:01,62,358,-10,275,960
02/01/99,00:20:01,58,4,-10,260,960
02/01/99,00:25:01,48,359,-10,260,960
02/01/99,00:30:01,51,341,-10,253,960
02/01/99,00:35:01,58,355,-10,251,960
02/01/99,00:40:01,79,356,-10,255,960
02/01/99,00:45:01,82,6,-10,261,960
02/01/99,00:50:01,67,2,-10,244,960
02/01/99,00:55:01,82,359,-10,250,960
02/01/99,01:00:01,71,25,-10,260,960
02/01/99,01:05:01,89,14,-10,287,960
02/01/99,01:10:01,89,24,-10,301,960
02/01/99,01:15:01,83,7,-10,314,960
02/01/99,01:20:01,58,17,-10,296,960
02/01/99,01:25:01,68,24,-10,308,960
02/01/99,01:30:01,72,15,-10,316,960
02/01/99,01:35:01,67,8,-10,289,960
02/01/99,01:40:01,70,19,-10,310,960
02/01/99,01:45:01,66,8,-10,303,960
02/01/99,01:50:01,61,8,-10,309,960
02/01/99,01:55:01,68,17,-10,303,960
02/01/99,02:00:01,59,5,-10,285,960
02/01/99,02:05:01,79,15,-10,309,960
02/01/99,02:10:01,70,5,-10,336,960
02/01/99,02:15:01,53,1,-10,342,960
02/01/99,02:20:01,58,18,-10,322,960
02/01/99,02:25:01,61,14,-10,313,960
02/01/99,02:30:01,64,18,-10,285,960
02/01/99,02:35:01,78,17,-10,272,960
02/01/99,02:40:01,70,14,-10,272,960
02/01/99,02:45:01,86,12,-10,279,960
02/01/99,02:50:01,78,2,-10,291,960
02/01/99,02:55:01,65,13,-10,278,960
02/01/99,03:00:01,72,2,-10,275,960
02/01/99,03:05:01,66,353,-10,284,960
02/01/99,03:10:01,85,7,-10,261,960
02/01/99,03:15:01,86,1,-11,268,960
02/01/99,03:20:01,76,3,-11,262,960
02/01/99,03:25:01,84,1,-11,274,960
02/01/99,03:30:01,83,359,-11,265,960
02/01/99,03:35:01,50,32,-10,255,960
02/01/99,03:40:01,80,4,-11,252,960
02/01/99,03:45:01,98,359,-11,246,960
02/01/99,03:50:01,85,358,-11,246,960
02/01/99,03:55:01,102,356,-11,253,960
02/01/99,04:00:01,85,34,-10,241,960
02/01/99,04:05:01,83,14,-11,241,960
02/01/99,04:10:01,108,13,-11,242,960
02/01/99,04:15:01,105,13,-11,246,960
02/01/99,04:20:01,74,3,-11,234,960
02/01/99,04:25:01,80,12,-11,225,960
02/01/99,04:30:01,90,8,-11,221,960
02/01/99,04:35:01,56,7,-10,215,960
02/01/99,04:40:01,49,17,-11,219,960
02/01/99,04:45:01,51,10,-11,217,960
02/01/99,04:50:01,53,9,-11,221,960
02/01/99,04:55:01,69,355,-11,221,960
02/01/99,05:00:01,84,8,-11,221,960
02/01/99,05:05:01,61,2,-11,225,960
02/01/99,05:10:01,80,2,-11,229,960
02/01/99,05:15:01,51,352,-10,223,960
02/01/99,05:20:01,46,358,-11,219,960
02/01/99,05:25:01,50,358,-11,215,960
02/01/99,05:30:01,47,329,-11,211,960
02/01/99,05:35:01,27,281,-10,205,960
02/01/99,05:40:01,50,198,-10,205,960
02/01/99,05:45:01,103,197,-9,207,960
02/01/99,05:50:01,68,192,-9,215,960
02/01/99,05:55:01,76,233,-9,231,960
02/01/99,06:00:01,34,2,-10,253,960
02/01/99,06:05:01,61,328,-10,394,960
02/01/99,06:10:01,40,359,-9,272,960
02/01/99,06:15:01,44,20,-9,252,960
02/01/99,06:20:01,29,14,-8,282,958
02/01/99,06:25:01,79,7,-9,254,958
02/01/99,06:30:01,49,357,-9,205,958
02/01/99,06:35:01,23,22,-8,196,958
02/01/99,06:40:01,9,21,-8,207,958
02/01/99,06:45:01,42,19,-9,211,958
02/01/99,06:50:01,1,358,-8,208,958
02/01/99,06:55:01,93,172,-8,204,958
02/01/99,07:00:01,121,159,-7,184,958
02/01/99,07:05:01,84,161,-6,303,958
02/01/99,07:10:01,77,150,-3,379,958
02/01/99,07:15:01,52,165,-2,349,958
02/01/99,07:20:01,16,102,-1,335,958
02/01/99,07:25:01,18,28,0,322,958
02/01/99,07:30:01,7,26,0,309,958
02/01/99,07:35:01,10,60,0,292,958
02/01/99,07:40:01,36,139,0,283,958
02/01/99,07:45:01,1,345,0,279,958
02/01/99,07:50:01,31,33,0,272,958
02/01/99,07:55:01,0,33,0,268,958
02/01/99,08:00:01,38,30,0,262,958
02/01/99,08:05:01,28,20,-1,256,958
02/01/99,08:10:01,50,2,-4,250,958
02/01/99,08:15:01,58,355,-4,244,958
02/01/99,08:20:01,59,20,-5,234,958
02/01/99,08:25:01,79,10,-7,228,958
02/01/99,08:30:01,94,4,-7,222,958
02/01/99,08:35:01,45,20,-7,215,958
02/01/99,08:40:01,49,359,-6,210,958
02/01/99,08:45:01,37,359,-5,204,958
02/01/99,08:50:01,47,9,-5,179,958
02/01/99,08:55:01,35,8,-5,196,958
02/01/99,09:00:01,36,8,-4,190,958
02/01/99,09:05:01,76,8,-6,186,958
02/01/99,09:10:01,65,8,-6,182,958
02/01/99,09:15:01,78,8,-7,178,958
02/01/99,09:20:01,39,355,-6,162,958
02/01/99,09:25:01,77,18,-7,165,958
02/01/99,09:30:01,58,6,-7,154,958
02/01/99,09:35:01,70,17,-8,129,958
02/01/99,09:40:01,70,11,-8,153,958
02/01/99,09:45:01,76,10,-8,149,958
02/01/99,09:50:01,74,10,-9,133,958
02/01/99,09:55:01,49,10,-9,42,958
02/01/99,10:00:01,56,10,-9,40,958
02/01/99,10:05:01,57,23,-8,120,958
02/01/99,10:10:01,75,12,-9,90,958
02/01/99,10:15:01,63,12,-10,94,958
02/01/99,10:20:01,62,6,-10,102,958
02/01/99,10:25:01,51,7,-10,42,958
02/01/99,10:30:01,54,17,-11,57,958
02/01/99,10:35:01,67,16,-11,47,958
02/01/99,10:40:01,65,16,-11,114,958
02/01/99,10:45:01,76,6,-11,117,958
02/01/99,10:50:01,71,17,-11,119,958
02/01/99,10:55:01,55,17,-11,90,958
02/01/99,11:00:01,70,17,-11,54,958
02/01/99,11:05:01,62,17,-11,52,958
02/01/99,11:10:01,57,14,-12,59,958
02/01/99,11:15:01,65,25,-12,59,958
02/01/99,11:20:01,45,21,-12,61,958
02/01/99,11:25:01,57,21,-12,64,958
02/01/99,11:30:01,62,21,-12,68,958
02/01/99,11:35:01,60,21,-12,90,958
02/01/99,11:40:01,48,21,-12,111,958
02/01/99,11:45:01,48,21,-12,109,958
02/01/99,11:50:01,48,21,-12,107,958
02/01/99,11:55:01,48,21,-12,103,958
02/01/99,12:00:01,48,21,-12,94,958
02/01/99,12:05:01,48,21,-11,93,958
02/01/99,12:10:01,48,21,-11,63,958
02/01/99,12:15:01,59,21,-12,60,958
02/01/99,12:20:01,48,11,-12,54,958
02/01/99,12:25:01,59,11,-12,58,958
02/01/99,12:30:01,49,11,-12,51,958
02/01/99,12:35:01,50,11,-12,51,958
02/01/99,12:40:01,37,11,-12,51,958
02/01/99,12:45:01,37,11,-12,57,958
02/01/99,12:50:01,26,11,-12,56,958
02/01/99,12:55:01,47,11,-12,58,958
02/01/99,13:00:01,47,11,-12,92,958
02/01/99,13:05:01,47,11,-12,94,958
02/01/99,13:10:01,57,22,-12,96,958
02/01/99,13:15:01,46,22,-12,96,958
02/01/99,13:20:01,58,22,-12,96,958
02/01/99,13:25:01,48,12,-12,96,958
02/01/99,13:30:01,37,12,-12,96,958
02/01/99,13:35:01,47,12,-12,91,958
02/01/99,13:40:01,29,12,-12,95,958
02/01/99,13:45:01,19,12,-12,95,958
02/01/99,13:50:01,19,12,-12,93,958
02/01/99,13:55:01,19,359,-12,93,958
02/01/99,14:00:01,19,359,-12,93,958
02/01/99,14:05:01,19,359,-12,69,958
02/01/99,14:10:01,19,359,-12,87,958
02/01/99,14:15:01,10,359,-12,83,958
02/01/99,14:20:01,0,322,-12,62,958
02/01/99,14:25:01,0,291,-13,46,958
02/01/99,14:30:01,0,291,-13,41,958
02/01/99,14:35:01,0,291,-13,63,958
02/01/99,14:40:01,0,291,-13,57,958
02/01/99,14:45:01,0,291,-13,37,958
02/01/99,14:50:01,0,291,-13,56,958
02/01/99,14:55:01,11,220,-13,77,958
02/01/99,15:00:01,11,220,-13,45,958
02/01/99,15:05:01,21,210,-13,89,956
02/01/99,15:10:01,21,210,-13,97,956
02/01/99,15:15:01,21,210,-13,97,956
02/01/99,15:20:01,21,210,-12,105,956
02/01/99,15:25:01,21,210,-12,109,956
02/01/99,15:30:01,11,210,-12,78,956
02/01/99,15:35:01,11,200,-12,81,956
02/01/99,15:40:01,10,175,-12,98,956
02/01/99,15:45:01,20,175,-12,74,956
02/01/99,15:50:01,8,175,-12,89,956
02/01/99,15:55:01,10,175,-12,98,956
02/01/99,16:00:01,20,162,-12,106,956
02/01/99,16:05:01,20,162,-12,114,956
02/01/99,16:10:01,20,162,-12,118,956
02/01/99,16:15:01,10,173,-12,130,956
02/01/99,16:20:01,21,173,-12,142,956
02/01/99,16:25:01,21,173,-12,144,956
02/01/99,16:30:01,19,173,-12,146,956
02/01/99,16:35:01,7,149,-12,118,956
02/01/99,16:40:01,7,139,-12,120,956
02/01/99,16:45:01,7,150,-12,155,956
02/01/99,16:50:01,7,150,-12,114,956
02/01/99,16:55:01,20,150,-12,86,956
02/01/99,17:00:01,9,161,-12,51,956
02/01/99,17:05:01,19,161,-12,171,956
02/01/99,17:10:01,14,161,-13,90,956
02/01/99,17:15:01,14,161,-12,96,956
02/01/99,17:20:01,24,161,-12,89,956
02/01/99,17:25:01,24,161,-12,100,956
02/01/99,17:30:01,24,161,-12,110,956
02/01/99,17:35:01,24,161,-12,116,956
02/01/99,17:40:01,13,161,-12,124,956
02/01/99,17:45:01,23,161,-12,130,956
02/01/99,17:50:01,11,161,-11,141,956
02/01/99,17:55:01,11,161,-11,142,956
02/01/99,18:00:01,11,145,-11,143,956
02/01/99,18:05:01,11,157,-11,139,956
02/01/99,18:10:01,11,182,-11,130,956
02/01/99,18:15:01,11,168,-11,132,956
02/01/99,18:20:01,11,168,-11,144,956
02/01/99,18:25:01,15,162,-11,150,956
02/01/99,18:30:01,11,159,-11,201,956
02/01/99,18:35:01,8,170,-11,181,956
02/01/99,18:40:01,7,179,-11,192,956
02/01/99,18:45:01,33,164,-11,207,956
02/01/99,18:50:01,33,175,-11,210,956
02/01/99,18:55:01,21,179,-11,211,956
02/01/99,19:00:01,21,177,-11,226,956
02/01/99,19:05:01,21,167,-11,186,956
02/01/99,19:10:01,17,166,-11,180,956
02/01/99,19:15:01,28,166,-11,191,956
02/01/99,19:20:01,28,166,-11,219,956
02/01/99,19:25:01,17,166,-11,253,956
02/01/99,19:30:01,17,166,-10,248,956
02/01/99,19:35:01,34,162,-10,234,956
02/01/99,19:40:01,34,152,-10,199,956
02/01/99,19:45:01,23,176,-10,196,956
02/01/99,19:50:01,23,154,-10,204,956
02/01/99,19:55:01,21,152,-10,208,956
02/01/99,20:00:01,20,148,-10,206,956
02/01/99,20:05:01,27,143,-10,196,956
02/01/99,20:10:01,15,146,-10,181,956
02/01/99,20:15:01,15,105,-10,159,956
02/01/99,20:20:01,10,129,-11,139,956
02/01/99,20:25:01,13,135,-11,112,956
02/01/99,20:30:01,11,148,-11,121,956
02/01/99,20:35:01,14,158,-12,135,956
02/01/99,20:40:01,15,139,-12,172,956
02/01/99,20:45:01,11,161,-12,253,956
02/01/99,20:50:01,11,143,-12,291,956
02/01/99,20:55:01,24,155,-11,259,956
02/01/99,21:00:01,16,112,-11,384,956
02/01/99,21:05:01,11,145,-11,392,956
02/01/99,21:10:01,2,141,-11,297,956
02/01/99,21:15:01,22,138,-11,267,956
02/01/99,21:20:01,10,163,-11,267,956
02/01/99,21:25:01,4,188,-12,244,956
02/01/99,21:30:01,10,157,-12,221,956
02/01/99,21:35:01,15,139,-11,231,956
02/01/99,21:40:01,29,129,-11,223,956
02/01/99,21:45:01,46,145,-11,243,956
02/01/99,21:50:01,26,117,-11,288,956
02/01/99,21:55:01,40,143,-11,333,956
02/01/99,22:00:01,38,126,-11,357,956
02/01/99,22:05:01,37,147,-10,271,956
02/01/99,22:10:01,26,149,-10,242,956
02/01/99,22:15:01,5,135,-10,259,956
02/01/99,22:20:01,6,125,-10,402,956
02/01/99,22:25:01,6,117,-10,339,956
02/01/99,22:30:01,13,160,-10,355,956
02/01/99,22:35:01,12,102,-9,330,956
02/01/99,22:40:01,21,123,-9,327,956
02/01/99,22:45:01,30,159,-9,314,956
02/01/99,22:50:01,4,154,-9,303,956
02/01/99,22:55:01,7,166,-9,357,956
02/01/99,23:00:01,5,119,-9,286,956
02/01/99,23:05:01,15,172,-9,267,956
02/01/99,23:10:01,15,172,-9,300,956
02/01/99,23:15:01,5,172,-9,303,956
02/01/99,23:20:01,5,172,-9,301,956
02/01/99,23:25:01,5,137,-9,315,956
02/01/99,23:30:01,5,137,-9,312,956
02/01/99,23:35:01,12,167,-9,240,956
02/01/99,23:40:01,30,177,-10,333,956
02/01/99,23:45:01,18,150,-10,330,956
02/01/99,23:50:01,31,167,-10,336,956
02/01/99,23:55:01,,,,,
02/02/99,00:00:01,34,170,-10,513,956
